Location: Boston
(42.3580°N, 71.0600°W)
Time: 21:30:00
(UTC-04:00)

Tiangong 1 - Pass Details

Date: 11 October 2017
Orbit: 293 x 320 km, 42.8° (Epoch: 19 October)

Event Time Altitude Azimuth Distance (km) Brightness Sun altitude
Rises 19:32:37 0° 278° (W) 2,040 6.6 -16.4°
Reaches altitude 10° 19:34:36 10° 278° (W) 1,204 4.9 -16.7°
Maximum altitude 19:37:18 87° 189° (S) 313 0.5 -17.2°
Enters shadow 19:37:19 86° 161° (SSE) 314 0.5 -17.2°
